TimeCDT,TemperatureF,Dew PointF,Humidity,Sea Level PressureIn,VisibilityMPH,Wind Direction,Wind SpeedMPH,Gust SpeedMPH,PrecipitationIn,Events,Conditions,WindDirDegrees,DateUTC
12:53 AM,68.0,62.1,81,29.82,10.0,Calm,Calm,-,N/A,,Overcast,0,2011-10-27 05:53:00
1:53 AM,66.0,61.0,84,29.82,10.0,Calm,Calm,-,N/A,,Overcast,0,2011-10-27 06:53:00
3:53 AM,63.0,59.0,87,29.82,10.0,Calm,Calm,-,N/A,,Partly Cloudy,0,2011-10-27 08:53:00
4:53 AM,63.0,55.9,78,29.82,10.0,Calm,Calm,-,N/A,,Overcast,0,2011-10-27 09:53:00
5:53 AM,62.1,55.9,80,29.85,10.0,Variable,3.5,-,N/A,,Overcast,0,2011-10-27 10:53:00
7:53 AM,57.0,51.1,81,29.94,10.0,North,8.1,23.0,0.00,,Overcast,360,2011-10-27 12:53:00
8:53 AM,55.9,48.9,77,29.96,10.0,North,8.1,-,N/A,,Overcast,10,2011-10-27 13:53:00
9:36 AM,55.4,48.2,77,30.00,10.0,North,10.4,17.3,N/A,,Overcast,10,2011-10-27 14:36:00
9:53 AM,55.0,48.0,77,30.00,10.0,North,10.4,16.1,N/A,,Overcast,10,2011-10-27 14:53:00
10:53 AM,55.9,48.9,77,29.99,10.0,NE,10.4,-,N/A,,Overcast,50,2011-10-27 15:53:00
11:21 AM,57.2,50.0,77,29.99,10.0,NNE,9.2,-,N/A,,Overcast,30,2011-10-27 16:21:00
11:53 AM,55.9,48.0,75,29.99,10.0,NE,12.7,-,N/A,,Overcast,40,2011-10-27 16:53:00
12:14 PM,55.4,46.4,72,30.00,10.0,NE,9.2,20.7,N/A,,Overcast,40,2011-10-27 17:14:00
12:37 PM,55.4,46.4,72,30.01,10.0,NE,12.7,-,N/A,,Overcast,50,2011-10-27 17:37:00
12:53 PM,55.0,46.9,74,30.02,10.0,North,6.9,-,N/A,,Overcast,10,2011-10-27 17:53:00
1:53 PM,53.1,48.0,83,30.01,10.0,North,11.5,16.1,0.00,Rain,Light Rain,350,2011-10-27 18:53:00
2:46 PM,51.8,48.2,88,29.99,10.0,North,8.1,-,0.00,,Overcast,10,2011-10-27 19:46:00
2:53 PM,53.1,48.9,86,29.99,10.0,NNE,9.2,-,0.00,,Overcast,20,2011-10-27 19:53:00
3:03 PM,53.6,48.2,82,29.98,10.0,NE,10.4,-,N/A,,Overcast,50,2011-10-27 20:03:00
3:13 PM,53.6,48.2,82,29.97,10.0,NE,9.2,-,N/A,,Overcast,40,2011-10-27 20:13:00
3:53 PM,54.0,46.9,77,29.97,10.0,NE,12.7,19.6,N/A,,Overcast,50,2011-10-27 20:53:00
4:07 PM,53.6,46.4,77,29.98,10.0,NE,11.5,19.6,N/A,,Overcast,40,2011-10-27 21:07:00
4:53 PM,53.1,46.9,80,29.97,10.0,North,11.5,17.3,N/A,,Overcast,10,2011-10-27 21:53:00
5:53 PM,53.1,46.9,80,29.98,10.0,North,8.1,-,N/A,,Overcast,360,2011-10-27 22:53:00
6:03 PM,53.6,46.4,77,29.99,10.0,NNE,8.1,-,N/A,,Overcast,20,2011-10-27 23:03:00
6:40 PM,51.8,46.4,82,30.01,10.0,North,9.2,-,0.00,Rain,Light Rain,360,2011-10-27 23:40:00
6:50 PM,51.8,46.4,82,30.00,10.0,NNE,8.1,-,0.00,,Overcast,20,2011-10-27 23:50:00
6:53 PM,51.1,46.0,83,30.00,10.0,NNE,9.2,-,0.00,,Overcast,30,2011-10-27 23:53:00
7:53 PM,51.1,46.0,83,30.02,10.0,North,6.9,-,N/A,,Overcast,10,2011-10-28 00:53:00
8:53 PM,51.1,45.0,80,30.02,10.0,NNE,8.1,-,N/A,,Overcast,20,2011-10-28 01:53:00
9:28 PM,51.8,44.6,76,30.04,10.0,NNE,9.2,-,N/A,,Overcast,20,2011-10-28 02:28:00
9:53 PM,51.1,45.0,80,30.06,10.0,NNW,4.6,-,N/A,,Overcast,330,2011-10-28 02:53:00
10:46 PM,48.2,46.4,93,30.13,4.0,West,4.6,-,0.09,Rain,Heavy Rain,270,2011-10-28 03:46:00
10:53 PM,48.0,46.0,93,30.12,4.0,NW,8.1,-,0.12,Rain,Heavy Rain,310,2011-10-28 03:53:00
11:53 PM,48.0,46.0,93,30.07,10.0,NNE,5.8,-,0.14,Rain,Light Rain,30,2011-10-28 04:53:00